Regional Weather Roundup
Issued by NWS

Home | Current Version | Previous Version | Graphics & Text | Print | Product List | Glossary On
Versions: 1 2 3 4 5 6 7 8 9 10 11 12 13 14 15 16 17 18 19 20 21 22 23 24 25 26 27 28 29 30 31 32 33 34 35 36 37 38 39 40 41 42 43 44 45 46 47 48 49 50
000
ASUS45 KABQ 042310
RWRNM
NEW MEXICO REGIONAL WEATHER ROUNDUP
NATIONAL WEATHER SERVICE ALBUQUERQUE NM
500 PM MDT WED MAY 04 2016

NOTE: "FAIR" MEANS FEW OR NO CLOUDS BELOW 12,000 FEET AGL WITH NO
       SIGNIFICANT WEATHER OR OBSTRUCTIONS TO VISION.

      THIS PRODUCT IS RELEASED AS TWO VERSIONS.  ONE VERSION NEAR
      THE TOP OF THE HOUR CONTAINING PRELIMINARY DATA FROM ALBUQUERQUE
      AND OTHER STATIONS.  A FINAL VERSION WITH ADDITIONAL DATA IS
      ISSUED ABOUT 10 MINUTES AFTER THE HOUR.

NMZ501-503-504-510>518-050000-
NORTHWEST PLATEAU/NORTHCENTRAL MOUNTAINS

CITY           SKY/WX    TMP DP  RH WIND       PRES   REMARKS
FARMINGTON     FAIR      77  15   9 VRB7      30.13F
LOS ALAMOS     FAIR     N/A N/A N/A SE8G16    30.28F
SANTA FE       FAIR      74  17  11 VRB6      30.22F
TAOS           FAIR      70  16  12 W7        30.27F
ANGEL FIRE     FAIR      63  18  17 W3        30.33F

$$
NMZ402-403-502-505>509-050000-
WESTCENTRAL MOUNTAINS/SOUTHWEST MOUNTAINS

CITY           SKY/WX    TMP DP  RH WIND       PRES   REMARKS
GALLUP         FAIR      74  25  16 VRB7      30.19F
GRANTS         FAIR      73  25  17 SE14G20   30.24F
SILVER CITY      N/A     77  25  14 SE15G23   30.18F

$$
NMZ407-409-411-412-050000-
SOUTHERN DESERTS

CITY           SKY/WX    TMP DP  RH WIND       PRES   REMARKS
LORDSBURG      FAIR      84  28  13 E17G28    30.07F
DEMING         FAIR      83  26  12 VRB5      30.10F
LAS CRUCES     FAIR      82  21  10 E6        30.13F
HOLLOMAN AFB   FAIR      82  20  10 W13       30.09F
ALAMOGORDO     FAIR      82  25  12 S8G17     30.12F
T OR C         FAIR      80  22  11 E10       30.13F

$$
NMZ519>523-050000-
CENTRAL VALLEYS/CENTRAL HIGHLANDS

CITY           SKY/WX    TMP DP  RH WIND       PRES   REMARKS
ALBUQUERQUE    FAIR      76  19  11 SW12      30.18F
DOUBLE EAGLE   MOSUNNY   75  19  12 VRB6      30.22F
MORIARTY ARPT  FAIR      73  13  10 N3        30.25F
CLINES CORNERS FAIR      69  19  15 VRB5      30.27F
BELEN          FAIR      78  17  10 SW7       30.17F
SOCORRO        FAIR      80  15   8 SE8G16    30.15F

$$
NMZ524>526-539-540-050000-
SOUTHCENTRAL MOUNTAINS

CITY           SKY/WX    TMP DP  RH WIND       PRES   REMARKS
RUIDOSO        FAIR      68  18  14 S8        30.29S

$$
NMZ527>531-050000-
NORTHEAST HIGHLANDS/NORTHEAST PLAINS

CITY           SKY/WX    TMP DP  RH WIND       PRES   REMARKS
LAS VEGAS      FAIR      68  19  15 SE10      30.26F
RATON          FAIR      72  19  13 S9        30.21F
CLAYTON        FAIR      75  32  20 CALM      30.17F

$$
NMZ532>537-050000-
EASTCENTRAL PLAINS

CITY           SKY/WX    TMP DP  RH WIND       PRES   REMARKS
TUCUMCARI      FAIR      80  24  12 S5        30.13F
CANNON AFB     SUNNY     78  26  14 NE7       30.15F
CLOVIS AIRPORT FAIR      79  34  19 NE9       30.17F

$$
NMZ028-029-538-050000-
SOUTHEAST PLAINS

CITY           SKY/WX    TMP DP  RH WIND       PRES   REMARKS
ROSWELL        FAIR      82  23  11 W3        30.12F
ARTESIA        FAIR      81  28  15 E6        30.12F
CARLSBAD       FAIR      80  28  15 S3        30.10F
HOBBS          SUNNY     81  23  12 VRB5      30.13F


$$




USA.gov is the U.S. government's official web portal to all federal, state and local government web resources and services.